Stations météo

réclame
Mon MeteoGroup
Kinlochewe, Grande-Bretagne (99092): Température de l'air & dewpoint: 11.08.2018 12:00:00 - 17.08.2018 12:00:00 (BST)Kinlochewe, Grande-Bretagne (99092): Température de l'air -20cm: 11.08.2018 12:00:00 - 17.08.2018 12:00:00 (BST)Kinlochewe, Grande-Bretagne (99092): Quantités de précipitations: 11.08.2018 12:00:00 - 17.08.2018 12:00:00 (BST)
Date & Time tt [°C] td [°C] tt -20cm [°C] rr [mm]
17.08.2018 12:00:00 14,0 11,4 - 0,0
17.08.2018 11:00:00 13,5 11,0 - 0,0
17.08.2018 10:00:00 13,2 10,5 14,0 0,0
17.08.2018 09:00:00 12,0 10,7 - 0,2
17.08.2018 08:00:00 11,1 10,5 - 0,2
17.08.2018 07:00:00 10,7 9,6 - 0,2
17.08.2018 06:00:00 10,6 9,5 - 0,0
17.08.2018 05:00:00 11,1 8,9 - 0,2
17.08.2018 04:00:00 11,4 9,9 - 0,8
17.08.2018 03:00:00 11,2 9,6 - 1,2
17.08.2018 02:00:00 11,5 9,4 - 0,2
17.08.2018 01:00:00 11,6 9,9 - 0,2
17.08.2018 00:00:00 12,5 9,0 - 0,0
16.08.2018 23:00:00 12,6 9,0 - 0,0
16.08.2018 22:00:00 12,6 9,2 - 0,0
16.08.2018 21:00:00 11,9 10,3 - 0,2
16.08.2018 20:00:00 12,1 11,1 - 0,8
16.08.2018 19:00:00 12,6 10,9 - 1,0
16.08.2018 18:00:00 14,4 11,0 - 0,2
16.08.2018 17:00:00 15,9 12,1 - 0,6
16.08.2018 16:00:00 13,7 11,0 - 2,6
16.08.2018 15:00:00 13,7 10,6 - 0,4
16.08.2018 14:00:00 13,1 10,6 - 0,4
16.08.2018 13:00:00 14,2 12,7 - 0,8
16.08.2018 12:00:00 13,0 10,6 - 0,6
16.08.2018 11:00:00 13,2 11,0 - 0,4
16.08.2018 10:00:00 13,0 9,9 14,0 0,0
16.08.2018 09:00:00 12,5 9,8 - 0,4
16.08.2018 08:00:00 12,2 9,5 - 0,0
16.08.2018 07:00:00 11,9 10,0 - 0,6
16.08.2018 06:00:00 12,1 9,6 - 0,4
16.08.2018 05:00:00 12,2 9,6 - 0,2
16.08.2018 04:00:00 11,9 9,8 - 0,8
16.08.2018 03:00:00 12,9 9,4 - 0,0
16.08.2018 02:00:00 13,2 8,7 - 0,0
16.08.2018 01:00:00 13,1 8,9 - 0,0
16.08.2018 00:00:00 12,8 8,4 - 0,0
15.08.2018 23:00:00 13,1 9,0 - 0,0
15.08.2018 22:00:00 14,3 8,4 - 0,0
15.08.2018 21:00:00 14,9 9,0 - 0,0
15.08.2018 20:00:00 14,7 10,9 - 0,2
15.08.2018 19:00:00 14,3 10,8 - 0,2
15.08.2018 18:00:00 14,3 10,6 - 0,0
15.08.2018 17:00:00 15,7 9,3 - 0,0
15.08.2018 16:00:00 15,5 9,2 - 0,0
15.08.2018 15:00:00 14,5 11,0 - 0,2
15.08.2018 14:00:00 15,4 10,8 - 0,2
15.08.2018 13:00:00 16,0 11,4 - 0,0
15.08.2018 12:00:00 14,7 11,4 - 0,0
15.08.2018 11:00:00 14,8 11,1 - 0,0
15.08.2018 10:00:00 15,8 13,1 14,2 0,0
15.08.2018 09:00:00 15,3 14,5 - 0,0
15.08.2018 08:00:00 14,3 14,2 - 1,0
15.08.2018 07:00:00 13,5 13,2 - 2,8
15.08.2018 06:00:00 13,6 13,0 - 0,8
15.08.2018 05:00:00 14,4 12,8 - 0,0
15.08.2018 04:00:00 14,4 12,3 - 0,0
15.08.2018 03:00:00 13,9 11,6 - 0,0
15.08.2018 02:00:00 14,3 11,3 - 0,0
15.08.2018 01:00:00 13,9 10,7 - 0,0
15.08.2018 00:00:00 14,2 10,4 - 0,0
14.08.2018 23:00:00 14,4 10,5 - 0,0
14.08.2018 22:00:00 14,5 10,7 - 0,0
14.08.2018 21:00:00 14,3 11,4 - 0,0
14.08.2018 20:00:00 15,1 11,3 - 0,0
14.08.2018 19:00:00 15,0 12,6 - 0,0
14.08.2018 18:00:00 15,9 13,1 - 0,0
14.08.2018 17:00:00 17,1 14,6 - 0,4
14.08.2018 16:00:00 16,8 14,6 - 0,0
14.08.2018 15:00:00 17,9 15,6 - 0,2
14.08.2018 14:00:00 17,6 14,8 - 0,4
14.08.2018 13:00:00 17,4 13,9 - 0,0
14.08.2018 12:00:00 16,9 14,2 - 0,0
14.08.2018 11:00:00 14,4 13,3 - 0,6
14.08.2018 10:00:00 15,0 12,6 14,0 0,0
14.08.2018 09:00:00 14,9 11,8 - 0,0
14.08.2018 08:00:00 14,9 12,6 - 0,0
14.08.2018 07:00:00 13,7 12,4 - 0,0
14.08.2018 06:00:00 13,8 11,6 - 0,0
14.08.2018 05:00:00 14,0 11,8 - 0,2
14.08.2018 04:00:00 14,6 12,1 - 0,0
14.08.2018 03:00:00 14,5 11,9 - 0,0
14.08.2018 02:00:00 13,7 12,0 - 0,0
14.08.2018 01:00:00 13,7 11,8 - 0,0
14.08.2018 00:00:00 14,1 11,7 - 0,0
13.08.2018 23:00:00 14,2 11,9 - 0,0
13.08.2018 22:00:00 14,5 12,0 - 0,0
13.08.2018 21:00:00 15,0 12,3 - 0,0
13.08.2018 20:00:00 15,4 13,2 - 0,0
13.08.2018 19:00:00 15,0 13,7 - 0,0
13.08.2018 18:00:00 15,2 13,6 - 0,0
13.08.2018 17:00:00 17,5 13,9 - 0,0
13.08.2018 16:00:00 17,5 14,1 - 0,0
13.08.2018 15:00:00 16,6 13,9 - 0,0
13.08.2018 14:00:00 16,1 13,7 - 0,0
13.08.2018 13:00:00 16,1 12,9 - 0,0
13.08.2018 12:00:00 16,0 12,9 - 0,0
13.08.2018 11:00:00 15,1 12,7 - 0,0
13.08.2018 10:00:00 14,4 12,4 13,9 0,0
13.08.2018 09:00:00 13,7 12,6 - 0,0
13.08.2018 08:00:00 13,2 12,5 - 0,0
13.08.2018 07:00:00 12,7 12,1 - 0,0
13.08.2018 06:00:00 12,9 11,8 - 0,2
13.08.2018 05:00:00 13,3 11,5 - 0,0
13.08.2018 04:00:00 13,4 11,5 - 0,0
13.08.2018 03:00:00 13,4 11,4 - 0,0
13.08.2018 02:00:00 13,4 11,4 - 0,0
13.08.2018 01:00:00 13,3 11,4 - 0,0
13.08.2018 00:00:00 13,3 11,6 - 0,2
12.08.2018 23:00:00 13,0 11,5 - 0,8
12.08.2018 22:00:00 13,2 11,5 - 0,8
12.08.2018 21:00:00 13,2 11,5 - 0,6
12.08.2018 20:00:00 13,5 11,8 - 1,2
12.08.2018 19:00:00 13,7 11,9 - 1,0
12.08.2018 18:00:00 14,5 12,1 - 0,4
12.08.2018 17:00:00 14,7 12,2 - 0,2
12.08.2018 16:00:00 14,8 12,1 - 1,0
12.08.2018 15:00:00 15,3 11,2 - 0,0
12.08.2018 14:00:00 15,5 11,2 - 0,0
12.08.2018 13:00:00 15,2 11,1 - 0,0
12.08.2018 12:00:00 15,3 10,9 - 0,0
12.08.2018 11:00:00 15,1 10,6 - 0,0
12.08.2018 10:00:00 15,1 10,1 14,2 0,0
12.08.2018 09:00:00 14,8 9,1 - 0,0
12.08.2018 08:00:00 15,0 9,9 - 0,0
12.08.2018 07:00:00 11,8 9,1 - 0,0
12.08.2018 06:00:00 11,4 9,0 - 0,0
12.08.2018 05:00:00 12,1 9,0 - 0,0
12.08.2018 04:00:00 13,0 9,6 - 0,0
12.08.2018 03:00:00 13,6 9,6 - 0,0
12.08.2018 02:00:00 13,4 9,5 - 0,0
12.08.2018 01:00:00 13,8 8,6 - 0,0
12.08.2018 00:00:00 13,7 8,7 - 0,0
11.08.2018 23:00:00 13,6 7,8 - 0,0
11.08.2018 22:00:00 13,7 7,6 - 0,0
11.08.2018 21:00:00 14,8 7,9 - 0,0
11.08.2018 20:00:00 15,8 8,2 - 0,0
11.08.2018 19:00:00 16,0 7,6 - 0,0
11.08.2018 18:00:00 16,8 8,7 - 0,0
11.08.2018 17:00:00 17,4 7,2 - 0,0
11.08.2018 16:00:00 17,2 7,1 - 0,0
11.08.2018 15:00:00 16,7 7,3 - 0,0
11.08.2018 14:00:00 16,5 7,2 - 0,0
11.08.2018 13:00:00 15,7 7,3 - 0,0
11.08.2018 12:00:00 15,7 6,9 - 0,0

tt = Température de l'air
td = dewpoint
tt -20cm = Température de l'air -20cm
rr = Quantités de précipitations

stations d'obs. à proximité